Location: Huntsville
(41.2590°N, 111.7678°W)
Time: 08:03:39
(UTC+00:00)

Vanguard 3 - Pass Details

Date: 22 June 2021
Orbit: 508 x 3261 km, 33.4° (Epoch: 29 July)

Event Time Altitude Azimuth Distance (km) Brightness Sun altitude
Rises 18:15:40 0° 260° (W) 2,903 9.9 66.5°
Reaches altitude 10° 18:18:08 10° 242° (WSW) 2,203 9.4 66.8°
Maximum altitude 18:21:56 21° 193° (SSW) 1,917 9.6 67.3°
Drops below altitude 10° 18:27:14 10° 148° (SSE) 3,197 10.7 68.0°
Sets 18:31:46 0° 134° (SE) 4,707 11.4 68.5°
